{"data":{"norad_id":60493,"epoch":"2026-09-22T17:16:56.350560Z","epoch_age_seconds":94514,"freshness":"FRESH","line1":"1 60493U 24149AB  26265.72009665  .00006373  00000+0  21799-3 0  9997","line2":"2 60493  97.3730 346.3368 0002902 177.5663 182.5593 15.30600593117042","mean_motion":15.30600593,"eccentricity":0.0002902,"inclination_deg":97.373,"raan_deg":346.3368,"arg_perigee_deg":177.5663,"mean_anomaly_deg":182.5593,"bstar":0.00021799,"rev_number":11704,"period_min":94.080716196351,"perigee_km":472.03073606963,"apogee_km":476.00772754658,"semimajor_km":6852.1562318081,"source":"CELESTRAK","updated_at":"2026-09-23T09:00:20.656949Z"}}